{"data":{"norad_id":59610,"intl_designator":"2024-080K","name":"STARLINK-31729","alt_names":[],"object_type":"PAYLOAD","status":"ACTIVE","operator":null,"country":"US","launch_date":"2024-04-28","launch_site_code":"AFETR","launch_vehicle":null,"mission":null,"orbit_class":"UNKNOWN","rcs_meters":null,"size_class":null,"mass_kg":null,"dimensions":null,"purposes":["comms"],"wikipedia_slug":null,"has_3d_model":false,"image_url":null,"decayed_at":null,"tle_current":{"epoch":"2026-09-21T08:24:49.900320Z","epoch_age_seconds":94795,"freshness":"FRESH","line1":"1 59610U 24080K   26264.35057755 -.00000657  00000+0 -14374-4 0  9994","line2":"2 59610  43.0040   9.7012 0000848 277.8519  82.2236 15.27573275134490","mean_motion":15.27573275,"eccentricity":8.48e-5,"inclination_deg":43.004,"raan_deg":9.7012,"arg_perigee_deg":277.8519,"mean_anomaly_deg":82.2236,"bstar":-1.4374e-5,"rev_number":13449,"period_min":94.267163714291,"perigee_km":482.48740289426,"apogee_km":483.65106347141,"semimajor_km":6861.2062331828,"source":"CELESTRAK","updated_at":"2026-09-22T09:00:49.011350Z"}}}